GSAT-9 (42695 NORAD) Tracking and Keplerian Element Data

This shows tracking and keplerian element data for the satellite.

Feedback or suggestion? Click here.




ElementValue
Catalog42695
NameGSAT-9
Epoch Orbit663
Epoch Day53.05901503
Epoch Year2019
RAAN275.1567
Inclination0.0951
Eccentricity0.0002637
Argument of Perigee74.9022
Mean Anonmoly280.1479
Mean Motion1.00273444
Decay Rate-3.09E-06
L11 42695U 17024A 19053.05901503 -.00000309 00000-0 00000+0 0 9993
L22 42695 0.0951 275.1567 0002637 74.9022 280.1479 1.00273444 6639

Live tracking and technical data element details for GSAT-9 (NORAD 42695). GSAT-9 can be tracked NOW for your location showing map with azimuth and elevation plus other details from your city location.

Track the satellite on the map from your city or location and see movement details for azimuth, elevation, latitude, longitude, range, height, and movement on the map or in text.







IsCatalogInMostPopularTable: catalog: 42695, numindb: 161
Update: records affected: 1



GetName: 42695 GSAT-9

Hit Count: updated at: Fri, 22 Feb 2019 22:27:57 GMT